Temp
-14 -15 -15 -15 -14 -13 -14 -13 -14 -14 -13 -13 -14 -13 -14 -14 -14 -13 -13 -14 -14 -14 -14 -14 -14 -14 -14 -14 -13 -13 -13 -13 -14 -14 -14 -14 -14 -14
-16 -15 -15 -14 -14 -14 -13 -13 -14 -14 -13 -13 -14 -13 -13 -14 -14 -13 -14 -14 -14 -14 -14 -13 -14 -14 -14 -14 -14 -14 -14 -14 -14 -14 -14 -14 -14 -15
-15 -15 -15 -15 -15 -14 -14 -13 -13 -14 -13 -14 -14 -13 -13 -14 -14 -14 -14 -14 -14 -14 -14 -14 -14 -14 -14 -14 -14 -14 -14 -14 -14 -14 -14 -14 -14 -14
-16 -16 -15 -15 -15 -15 -14 -14 -13 -14 -13 -13 -13 -13 -13 -13 -14 -14 -14 -14 -14 -15 -14 -14 -14 -14 -14 -14 -14 -14 -14 -14 -14 -14 -14 -14 -14 -14
-16 -16 -16 -16 -15 -15 -14 -14 -14 -14 -13 -13 -13 -13 -14 -14 -13 -14 -14 -14 -14 -14 -14 -14 -14 -14 -14 -14 -14 -14 -14 -14 -14 -14 -14 -14 -14 -14
-17 -17 -16 -15 -15 -15 -14 -14 -14 -14 -13 -13 -13 -13 -13 -13 -14 -14 -14 -14 -14 -14 -14 -14 -15 -14 -14 -14 -14 -14 -14 -14 -14 -15 -14 -14 -14 -14
-17 -17 -15 -15 -15 -15 -14 -14 -14 -14 -14 -13 -13 -14 -14 -14 -14 -15 -14 -14 -14 -15 -14 -14 -15 -15 -14 -15 -14 -15 -15 -15 -15 -15 -15 -14 -14 -14
-17 -16 -16 -16 -16 -16 -15 -14 -14 -14 -14 -14 -14 -14 -14 -14 -14 -14 -14 -14 -15 -15 -15 -15 -14 -15 -15 -15 -15 -15 -15 -15 -15 -15 -15 -15 -15 -15
-17 -17 -17 -17 -17 -16 -15 -14 -14 -14 -14 -14 -14 -14 -14 -15 -15 -15 -14 -15 -14 -15 -15 -15 -15 -15 -15 -15 -15 -14 -14 -14 -15 -15 -14 -15 -14 -15
-18 -17 -17 -17 -17 -16 -15 -15 -15 -15 -15 -15 -15 -14 -15 -15 -15 -15 -15 -15 -14 -15 -15 -15 -15 -15 -15 -15 -15 -15 -15 -15 -15 -15 -15 -15 -14 -15
-18 -17 -17 -17 -17 -17 -17 -17 -15 -16 -17 -16 -15 -15 -15 -15 -15 -15 -15 -16 -15 -15 -15 -15 -15 -16 -16 -15 -15 -15 -15 -15 -15 -15 -15 -15 -15 -15
-17 -17 -17 -17 -18 -18 -18 -18 -18 -18 -18 -17 -17 -16 -16 -15 -15 -15 -15 -15 -15 -15 -15 -15 -15 -16 -16 -15 -15 -15 -15 -15 -15 -15 -15 -15 -15 -15
-18 -18 -18 -18 -18 -18 -18 -18 -18 -18 -19 -18 -18 -17 -17 -17 -16 -16 -15 -15 -15 -15 -15 -15 -15 -15 -16 -16 -15 -15 -15 -15 -15 -15 -15 -15 -15 -16
-18 -18 -18 -18 -17 -17 -17 -18 -18 -18 -18 -19 -18 -18 -17 -17 -17 -17 -15 -15 -15 -15 -15 -15 -15 -16 -16 -16 -15 -15 -15 -15 -15 -15 -15 -15 -16 -16
-17 -17 -17 -17 -17 -17 -17 -17 -17 -18 -18 -18 -18 -19 -18 -17 -17 -17 -16 -15 -16 -15 -16 -15 -15 -16 -16 -16 -16 -15 -15 -15 -15 -15 -15 -15 -16 -16
-18 -18 -18 -18 -17 -17 -18 -17 -17 -17 -17 -17 -17 -18 -18 -18 -17 -17 -17 -17 -16 -16 -16 -16 -16 -16 -16 -15 -16 -16 -16 -15 -15 -15 -15 -15 -16 -16
-19 -18 -18 -18 -18 -18 -18 -18 -18 -17 -17 -17 -17 -17 -17 -17 -19 -18 -18 -17 -17 -16 -16 -15 -15 -16 -16 -16 -16 -16 -16 -16 -16 -15 -15 -16 -16 -16
-18 -18 -18 -18 -18 -18 -18 -18 -18 -17 -17 -17 -17 -17 -17 -17 -17 -18 -18 -17 -16 -16 -16 -16 -16 -16 -16 -15 -16 -16 -16 -16 -16 -16 -16 -16 -16 -16
-19 -18 -17 -17 -17 -17 -18 -18 -18 -18 -17 -17 -17 -17 -17 -17 -16 -17 -17 -17 -17 -16 -17 -16 -16 -16 -16 -16 -16 -16 -16 -16 -16 -16 -16 -16 -16 -16
-21 -20 -19 -18 -18 -17 -17 -17 -17 -17 -17 -17 -17 -17 -17 -17 -17 -17 -17 -17 -18 -17 -17 -17 -16 -17 -16 -16 -16 -16 -16 -16 -16 -16 -16 -16 -16 -17
-22 -21 -21 -21 -21 -19 -19 -19 -18 -17 -17 -17 -17 -17 -17 -17 -16 -17 -16 -16 -17 -18 -17 -16 -16 -16 -16 -16 -16 -16 -16 -16 -16 -16 -16 -16 -17 -17
-22 -22 -21 -21 -21 -20 -20 -20 -21 -20 -19 -18 -17 -17 -17 -17 -17 -16 -17 -16 -16 -17 -17 -16 -16 -16 -17 -16 -17 -16 -17 -17 -17 -17 -16 -16 -17 -18
-22 -22 -22 -21 -21 -21 -21 -21 -21 -21 -21 -21 -21 -18 -18 -17 -17 -17 -17 -17 -16 -17 -18 -18 -17 -17 -17 -17 -17 -17 -17 -17 -17 -17 -17 -17 -18 -18
Height
5664 5672 5669 5673 5677 5681 5685 5688 5690 5694 5683 5701 5704 5709 5711 5715 5717 5717 5721 5722 5724 5725 5727 5728 5729 5730 5732 5733 5733 5733 5734 5735 5736 5736 5736 5737 5737 5738
5654 5662 5662 5662 5666 5668 5674 5678 5680 5682 5688 5691 5695 5700 5702 5705 5710 5710 5713 5714 5716 5717 5718 5719 5720 5722 5724 5725 5727 5727 5727 5727 5728 5728 5728 5728 5728 5727
5652 5648 5650 5652 5653 5658 5662 5666 5669 5673 5678 5682 5687 5681 5689 5695 5701 5703 5703 5706 5707 5709 5710 5710 5712 5713 5715 5716 5718 5719 5719 5719 5719 5720 5720 5720 5719 5718
5636 5637 5641 5644 5645 5647 5650 5654 5658 5662 5668 5676 5678 5678 5680 5675 5689 5692 5695 5697 5699 5700 5701 5702 5703 5705 5706 5706 5708 5709 5708 5709 5710 5711 5711 5711 5710 5710
5626 5630 5632 5634 5636 5640 5642 5646 5649 5654 5660 5665 5670 5669 5671 5677 5679 5682 5685 5687 5690 5692 5692 5694 5695 5695 5696 5697 5698 5699 5700 5700 5699 5700 5701 5701 5701 5700
5617 5621 5624 5625 5626 5629 5633 5638 5641 5646 5650 5652 5654 5658 5661 5667 5671 5673 5675 5677 5679 5680 5683 5683 5685 5686 5687 5688 5689 5688 5689 5689 5689 5689 5690 5690 5690 5690
5606 5609 5612 5614 5616 5619 5621 5626 5631 5631 5631 5628 5626 5645 5649 5654 5659 5663 5664 5666 5668 5670 5673 5675 5675 5676 5678 5678 5678 5678 5677 5677 5678 5678 5679 5679 5679 5679
5595 5598 5600 5601 5604 5608 5609 5613 5618 5623 5623 5623 5630 5634 5635 5642 5644 5650 5652 5655 5658 5662 5662 5664 5666 5667 5667 5667 5667 5667 5667 5666 5665 5666 5666 5667 5667 5667
5585 5587 5588 5589 5592 5596 5600 5602 5606 5609 5612 5615 5617 5621 5627 5630 5632 5636 5639 5645 5645 5651 5650 5654 5655 5656 5656 5656 5657 5656 5655 5654 5653 5653 5654 5654 5655 5654
5574 5576 5578 5579 5581 5583 5586 5589 5592 5595 5599 5600 5605 5613 5614 5616 5619 5623 5626 5630 5633 5637 5640 5642 5644 5644 5644 5645 5646 5646 5645 5643 5640 5639 5640 5641 5642 5641
5563 5565 5567 5568 5570 5573 5575 5576 5578 5581 5583 5586 5590 5594 5598 5601 5604 5608 5610 5616 5621 5625 5627 5631 5633 5633 5632 5633 5635 5635 5634 5632 5630 5630 5629 5629 5629 5628
5553 5555 5557 5559 5561 5563 5564 5566 5567 5568 5570 5573 5576 5579 5583 5586 5591 5593 5598 5601 5606 5611 5616 5618 5619 5621 5620 5623 5624 5624 5623 5622 5620 5620 5619 5618 5617 5617
5542 5545 5546 5548 5551 5553 5554 5555 5556 5559 5561 5561 5563 5567 5571 5575 5578 5581 5585 5587 5593 5599 5603 5604 5606 5608 5608 5611 5612 5613 5612 5611 5610 5609 5608 5606 5605 5605
5529 5533 5534 5535 5538 5540 5542 5544 5545 5548 5551 5550 5550 5553 5557 5561 5568 5569 5573 5577 5580 5584 5586 5591 5592 5595 5596 5597 5599 5600 5600 5599 5599 5598 5596 5594 5593 5592
5517 5518 5521 5523 5525 5527 5530 5532 5534 5537 5539 5539 5539 5540 5542 5545 5549 5554 5560 5563 5564 5563 5573 5577 5578 5582 5582 5584 5585 5587 5587 5587 5586 5584 5582 5580 5579 5579
5503 5505 5507 5509 5511 5513 5516 5518 5522 5524 5526 5527 5528 5530 5531 5530 5533 5539 5543 5547 5550 5555 5557 5560 5565 5568 5569 5571 5572 5573 5575 5574 5573 5571 5569 5568 5567 5566
5489 5490 5493 5495 5497 5499 5502 5504 5506 5509 5513 5515 5518 5520 5520 5521 5521 5522 5526 5532 5535 5540 5543 5546 5550 5554 5556 5558 5559 5560 5561 5562 5560 5559 5557 5556 5555 5553
5471 5473 5476 5479 5481 5484 5486 5489 5491 5493 5497 5500 5504 5505 5506 5508 5510 5511 5512 5515 5519 5524 5530 5533 5536 5538 5542 5544 5546 5547 5548 5548 5547 5546 5545 5544 5543 5540
5452 5453 5456 5459 5462 5464 5467 5471 5474 5477 5480 5483 5487 5490 5492 5493 5495 5498 5501 5501 5507 5510 5515 5519 5523 5524 5526 5530 5532 5533 5534 5534 5534 5534 5533 5532 5530 5528
5432 5433 5435 5436 5439 5441 5444 5448 5452 5457 5461 5465 5469 5474 5478 5480 5482 5484 5488 5490 5491 5495 5499 5503 5507 5510 5514 5517 5518 5519 5519 5520 5521 5521 5520 5519 5517 5515
5416 5416 5415 5416 5417 5416 5417 5421 5426 5431 5436 5443 5448 5454 5460 5464 5468 5471 5474 5477 5479 5482 5485 5487 5491 5495 5500 5502 5504 5504 5506 5506 5506 5506 5506 5505 5504 5503
5400 5399 5399 5399 5399 5399 5398 5401 5404 5406 5410 5417 5422 5430 5438 5446 5451 5455 5457 5462 5465 5469 5470 5473 5478 5481 5483 5485 5487 5490 5491 5491 5491 5492 5492 5492 5491 5489
5383 5383 5382 5382 5381 5379 5380 5384 5387 5388 5391 5394 5398 5405 5413 5422 5431 5437 5440 5445 5448 5454 5457 5458 5461 5465 5469 5471 5472 5474 5475 5476 5477 5477 5477 5477 5476 5476
Wind_Speed
47 45 43 44 44 45 41 50 41 49 29 41 35 36 31 30 30 29 25 25 21 19 24 28 31 31 32 26 25 21 27 24 26 31 37 41 45 46
38 50 42 38 47 46 49 42 43 49 46 38 40 37 32 30 30 29 28 28 26 26 25 27 31 33 33 34 34 30 29 28 30 31 32 31 36 42
47 43 40 31 33 40 44 49 50 51 48 43 44 38 36 36 33 31 30 29 29 27 26 25 27 30 33 33 33 33 35 35 34 35 36 35 34 36
41 38 34 37 31 34 41 44 44 50 56 45 43 40 40 35 33 33 30 27 29 30 30 27 27 31 32 34 35 31 33 34 36 37 40 39 36 37
32 38 36 37 34 29 32 39 44 45 44 45 43 45 42 36 35 39 35 33 35 35 35 31 29 28 31 34 34 34 37 36 38 40 44 43 41 40
41 40 41 37 36 35 33 35 37 40 41 45 47 46 47 44 43 42 40 37 39 39 38 34 33 32 30 28 31 36 36 35 36 39 46 47 45 42
45 46 42 35 35 40 40 38 40 43 46 46 39 48 50 48 43 42 43 43 40 41 41 38 34 31 31 33 32 31 35 40 43 41 46 46 46 42
44 44 39 38 38 38 41 46 42 42 47 46 54 54 41 47 49 47 47 46 46 40 44 40 37 36 37 35 36 36 36 40 40 43 48 47 47 46
39 38 37 37 40 39 37 39 47 48 45 48 50 51 52 47 49 51 49 48 46 49 43 41 37 35 36 38 38 38 39 40 41 45 46 48 48 47
35 36 39 37 39 40 38 38 42 48 52 51 48 46 52 56 55 51 53 52 52 50 45 42 39 39 40 39 40 39 40 39 39 39 43 47 50 51
38 37 36 36 33 34 33 32 37 45 51 50 50 53 45 50 55 60 56 56 51 50 46 47 43 42 41 43 42 42 42 39 33 31 34 39 43 51
38 37 36 36 36 36 33 29 26 34 54 53 49 50 48 54 47 48 50 56 55 52 50 49 45 45 43 43 42 41 41 40 35 34 39 37 37 43
45 44 40 38 37 36 38 35 31 29 32 50 57 55 55 53 49 51 55 48 54 56 51 51 48 46 45 42 43 44 43 40 40 39 38 38 42 42
50 50 48 45 41 37 37 42 39 39 38 35 38 48 56 55 50 46 45 48 50 52 53 54 50 47 45 45 44 44 45 44 41 39 40 41 40 44
46 49 49 48 47 45 43 40 43 43 41 39 35 38 41 54 59 53 43 38 44 41 46 56 51 51 47 46 45 45 45 45 43 41 40 41 40 43
52 55 55 54 53 53 51 49 45 44 46 44 41 38 41 40 49 60 56 43 46 44 41 48 48 48 45 46 46 45 43 44 44 42 41 38 37 42
47 50 54 56 56 56 56 55 52 48 49 49 47 43 40 40 42 49 61 55 50 48 45 40 48 49 51 46 44 45 43 43 43 42 41 41 44 44
52 52 53 54 55 57 57 59 58 54 51 50 50 47 43 40 39 42 42 55 56 52 48 46 48 51 49 49 47 44 45 43 44 43 41 41 41 39
58 60 61 62 62 62 62 63 63 62 58 56 53 51 48 47 43 42 44 45 52 49 55 55 45 47 49 50 44 43 45 46 45 45 44 42 40 36
58 61 63 67 71 73 73 72 72 71 68 65 61 59 55 52 49 46 45 46 47 50 59 54 54 50 50 48 44 44 46 48 46 45 45 45 42 40
55 56 57 57 56 64 71 73 83 83 79 77 72 69 63 59 57 50 48 44 46 47 44 54 54 50 48 46 51 51 45 45 49 48 44 44 43 43
50 50 51 51 53 51 52 54 55 59 69 83 82 80 75 67 64 61 53 52 50 52 50 51 47 48 47 51 51 48 48 50 48 46 48 47 44 42
47 44 46 47 46 43 44 52 55 54 51 51 56 72 82 75 70 69 61 58 55 57 56 47 47 44 47 53 56 51 54 52 46 47 44 42 42 45
Wind_Direction
238 274 270 264 271 260 258 258 249 243 249 234 239 242 245 249 253 253 254 254 260 265 267 264 263 267 271 278 276 273 268 270 269 266 268 266 269 270
279 272 268 270 264 258 248 254 245 244 241 239 244 239 246 250 253 258 256 257 261 263 272 270 263 266 270 267 270 269 274 277 282 284 286 284 275 271
267 265 267 266 262 255 247 248 254 241 236 235 243 247 246 248 249 257 259 253 256 262 268 272 268 268 273 272 271 268 275 275 275 281 285 283 283 287
259 272 258 253 261 257 243 243 248 241 238 231 241 246 247 233 246 254 253 255 254 258 265 269 272 273 277 272 271 272 278 267 272 277 280 282 282 284
252 253 254 252 252 252 249 239 245 239 235 235 234 243 246 247 249 250 253 256 259 259 260 264 269 277 274 272 275 274 274 277 274 271 273 278 279 281
250 247 249 248 251 250 247 248 242 233 241 242 238 239 244 245 248 249 253 253 256 262 266 265 264 268 274 273 273 268 271 275 279 271 271 274 277 277
247 253 250 249 251 248 245 242 244 245 233 252 251 248 243 244 243 249 250 252 255 261 264 260 264 269 274 276 275 276 273 274 265 270 273 273 273 275
248 250 253 255 253 252 248 245 242 241 245 249 245 242 250 248 246 244 248 251 256 264 263 261 263 267 271 276 278 279 284 275 274 270 268 268 268 272
247 251 252 254 254 252 249 250 247 243 241 245 247 248 248 249 248 247 245 248 252 258 262 265 264 268 271 273 279 281 289 281 273 270 265 264 266 270
243 246 246 248 250 254 257 253 255 250 244 241 240 252 249 247 246 241 245 245 242 249 257 263 265 266 269 273 276 282 287 287 284 271 266 267 270 270
242 243 247 249 253 254 258 267 255 248 245 247 241 240 250 246 249 247 240 252 251 251 255 258 262 264 267 271 276 281 285 287 278 272 275 275 273 263
237 241 246 248 249 252 256 255 267 263 247 247 249 249 251 247 250 250 240 243 246 251 253 257 260 262 265 267 273 275 280 283 274 278 277 277 277 268
243 244 245 248 250 253 254 257 254 258 260 253 250 252 254 252 256 252 244 246 247 247 251 255 257 261 266 267 269 272 275 281 277 277 279 283 281 278
239 242 244 247 249 253 255 252 253 256 264 263 261 258 250 253 255 258 245 236 248 246 253 256 258 260 262 267 267 270 274 275 281 278 278 281 280 271
242 241 242 245 248 251 253 254 254 253 257 259 268 264 258 256 255 252 247 239 245 241 250 256 255 260 260 264 266 269 274 276 281 285 284 283 275 269
247 244 240 240 244 249 252 252 254 257 260 256 259 266 264 268 253 253 248 247 251 243 251 253 256 258 257 263 263 267 275 277 279 285 284 281 282 276
250 250 249 248 248 248 251 251 254 254 256 259 254 256 264 261 268 251 244 243 243 250 247 245 252 258 253 263 265 267 272 278 279 283 284 282 280 280
250 251 253 253 254 255 254 253 252 252 253 252 255 254 252 259 263 266 255 244 241 248 247 244 256 250 257 259 262 269 271 275 279 281 283 281 284 281
257 255 255 254 254 254 254 256 256 255 252 250 252 253 256 253 255 265 266 254 253 241 253 255 261 254 251 256 261 266 269 270 274 280 280 281 278 278
266 262 258 258 256 254 251 251 252 252 253 253 250 250 251 252 254 253 261 262 262 256 249 253 254 256 251 257 261 264 270 271 271 279 278 279 279 278
265 268 268 265 262 258 257 258 250 246 247 248 249 248 248 248 250 248 251 257 256 263 251 255 256 248 254 256 262 262 268 272 269 269 275 278 278 281
265 271 264 266 263 260 261 259 255 255 252 248 245 247 245 244 247 246 247 250 248 256 262 249 246 246 254 258 261 265 269 267 267 269 272 273 275 274
266 275 263 265 262 263 263 256 254 252 252 252 254 251 245 239 241 244 242 246 249 250 259 265 259 258 256 260 261 262 265 266 263 267 268 269 270 274